SCP
0 0 1 1 1 1 0 0 0 0 0 0 0 0 0 1 1 1 1 0 0 0 0 0 0 0 0 0 0 0 0 0 0 0 0 0 0 0 0 0 0 0 0
0 1 1 1 1 1 1 0 0 0 0 0 0 0 0 0 0 0 0 0 0 0 0 0 0 0 0 0 0 0 0 0 0 0 0 0 0 0 0 0 0 0 0
1 1 1 1 1 1 1 1 0 0 0 0 0 0 0 0 0 0 0 0 0 0 0 0 0 0 0 0 0 0 0 0 0 0 0 0 0 0 0 0 0 0 0
1 1 1 1 1 1 1 1 1 0 0 0 0 0 0 0 0 0 0 0 0 0 0 0 0 0 0 0 0 0 0 0 0 0 0 0 0 0 0 0 0 0 0
1 1 1 1 1 1 1 1 1 1 0 0 0 0 0 0 0 0 0 0 0 0 0 0 0 0 0 0 0 0 0 0 0 0 0 0 0 0 0 0 0 0 0
1 1 1 1 1 1 1 1 1 1 0 0 0 0 0 0 0 0 0 0 0 0 0 0 0 0 0 0 0 0 0 0 0 0 0 0 0 0 0 0 0 0 0
1 1 1 1 1 1 1 1 1 1 1 0 0 0 0 0 0 0 0 0 0 0 0 0 0 0 0 0 0 0 0 0 0 0 0 0 0 0 0 0 0 0 0
1 1 1 1 1 1 1 1 1 1 1 1 0 0 0 0 0 0 0 0 0 0 0 0 0 0 0 0 0 0 0 0 0 0 0 0 0 0 0 0 0 0 0
1 1 1 1 1 1 1 1 1 1 1 1 0 0 0 0 0 0 0 0 0 0 0 0 0 0 0 0 0 0 0 0 0 0 0 0 0 0 0 0 0 0 0
1 1 1 1 1 1 1 1 1 1 1 1 0 0 0 0 0 0 0 0 0 0 0 0 0 0 0 0 0 0 0 0 0 0 0 0 0 0 0 0 0 0 0
1 1 1 1 1 1 1 1 1 1 1 1 0 0 0 0 0 0 0 0 0 0 0 0 0 0 0 0 0 0 0 0 0 0 0 0 0 0 0 0 0 0 0
1 1 1 1 1 1 1 1 1 1 1 0 0 0 0 0 0 0 0 0 0 0 0 0 0 0 0 0 0 0 0 0 0 0 0 0 0 0 0 0 0 0 0
1 1 1 1 1 1 1 1 1 1 1 0 0 0 0 0 0 0 0 0 0 0 0 0 0 0 0 0 0 0 0 0 0 0 0 0 0 0 0 0 0 0 0
1 1 1 1 1 1 1 1 1 1 1 0 0 0 0 0 0 0 0 0 0 0 0 0 0 0 0 0 0 0 0 0 0 0 0 0 0 0 0 0 0 0 0
1 1 1 1 1 1 1 1 1 1 0 0 0 0 0 0 0 0 0 0 0 0 0 1 0 0 0 0 0 0 0 0 0 0 0 0 0 0 0 0 0 0 0
2 2 1 1 1 1 1 1 1 1 1 0 0 0 0 0 0 0 0 0 0 0 0 0 0 0 0 0 0 0 0 0 0 0 0 0 0 0 0 0 0 0 0
2 2 2 2 1 1 1 1 1 1 1 1 0 0 0 0 0 0 0 0 0 0 0 0 0 0 0 0 0 0 0 0 0 0 0 0 0 0 0 0 0 0 0
2 2 2 2 2 1 1 1 1 1 1 1 1 1 0 0 0 0 0 0 0 0 0 0 0 0 0 0 0 0 0 0 0 0 0 0 0 0 0 0 0 0 0
3 3 2 2 2 1 1 1 1 1 1 1 1 1 0 0 0 0 0 0 0 0 0 0 0 0 0 0 0 0 0 0 0 0 0 0 0 0 0 0 0 0 0
2 2 2 2 2 1 1 1 1 1 1 1 1 1 0 0 0 0 0 0 0 0 0 0 0 0 0 0 0 0 0 0 0 0 0 0 0 0 0 0 0 0 0
2 2 2 2 1 1 1 1 1 1 1 1 1 1 0 0 0 0 0 0 0 0 0 0 0 0 0 0 0 0 0 0 0 0 0 0 0 0 0 0 0 0 0
2 2 2 1 1 1 1 1 1 1 1 1 1 1 0 0 0 0 0 0 0 0 0 0 0 0 0 0 0 0 0 0 0 0 0 0 0 0 0 0 0 0 0
2 2 1 1 1 1 1 1 1 1 1 1 1 0 0 0 0 0 0 0 0 0 0 0 0 0 0 0 0 0 0 0 0 0 0 0 0 0 0 0 0 0 0
2 2 1 1 1 1 1 1 1 1 1 1 0 0 0 0 0 0 0 0 0 0 0 0 0 0 0 0 0 0 0 0 0 0 0 0 0 0 0 0 0 0 0
2 2 1 1 1 1 1 1 1 1 1 0 0 0 0 0 0 0 0 0 0 0 0 0 0 0 0 0 0 0 0 0 0 0 0 0 0 0 0 0 0 0 0
2 2 2 2 1 1 1 1 1 1 0 0 0 0 0 0 0 0 0 0 0 0 0 0 0 0 0 0 0 0 0 0 0 0 0 0 0 0 0 0 0 0 0
Wind_Speed
7 9 15 16 16 16 15 15 15 15 15 15 15 14 15 15 14 15 14 13 13 12 11 11 10 10 10 10 10 10 10 11 11 11 12 11 11 10 11 12 12 9 13
13 11 16 16 16 16 16 15 15 14 14 14 14 13 13 13 13 13 12 12 11 11 11 10 9 9 9 9 9 9 9 9 9 9 10 9 10 10 11 12 12 8 12
14 12 14 16 16 17 16 16 15 14 14 13 13 13 12 12 12 11 11 10 10 10 10 9 9 8 8 8 7 7 7 7 7 7 7 4 5 10 11 12 12 12 11
15 11 13 17 17 17 16 16 15 15 14 13 13 12 12 11 10 10 10 10 9 8 8 8 8 7 6 6 5 5 5 4 4 4 2 2 3 9 11 12 12 11 11
12 9 13 18 17 17 17 16 15 15 14 13 12 12 11 10 10 9 9 9 8 8 7 7 7 6 5 4 3 3 2 2 1 1 1 2 2 8 11 12 12 11 11
11 9 12 18 17 17 16 16 15 15 14 13 12 12 11 10 9 9 9 8 8 7 6 6 6 5 3 2 1 1 1 2 1 1 2 3 3 8 11 12 12 12 11
11 8 11 16 17 16 16 16 15 15 14 13 12 11 11 9 9 8 8 8 7 6 6 6 5 4 3 2 1 1 2 3 0 1 2 3 4 9 11 11 11 12 11
14 10 10 16 17 16 16 15 14 14 13 12 11 10 10 9 8 8 7 7 7 6 6 5 5 4 4 3 3 3 3 3 1 1 1 3 6 9 11 11 11 11 11
12 11 8 9 12 15 15 14 14 13 12 11 10 10 10 9 8 8 7 7 7 6 6 6 5 5 5 4 4 4 4 2 1 1 2 2 6 10 11 11 11 11 11
9 9 8 7 7 8 9 13 14 13 12 11 11 10 10 9 9 8 7 6 7 7 7 6 6 6 6 6 5 5 4 2 0 1 1 3 7 10 11 11 11 11 12
8 6 8 7 7 6 7 10 11 12 11 10 9 10 8 4 4 4 7 8 8 8 8 7 7 6 6 6 7 6 4 1 2 2 2 5 8 11 11 11 11 11 11
10 8 7 7 7 7 7 6 4 5 5 4 4 5 3 3 3 4 5 9 9 9 8 8 8 6 5 2 4 5 1 2 2 2 3 7 9 10 11 12 11 11 12
10 10 9 8 8 7 5 5 3 3 3 4 4 4 3 3 2 3 2 4 5 6 4 4 4 2 2 2 2 2 2 2 2 2 4 8 9 10 11 11 11 12 12
10 9 8 8 8 7 6 5 5 4 4 4 4 5 3 2 2 2 2 3 2 2 2 2 2 2 3 3 3 3 3 2 2 2 4 9 10 10 11 12 12 12 12
10 9 8 7 7 6 6 5 5 5 4 5 4 4 4 3 3 2 2 2 2 2 2 2 2 3 3 2 2 3 3 3 3 3 3 9 11 12 12 12 12 13 12
8 8 8 7 7 6 5 4 4 4 4 4 4 4 5 3 3 2 2 2 2 2 2 2 2 2 2 2 2 2 2 3 3 3 3 5 10 11 11 12 12 13 13
7 7 7 7 5 5 5 5 4 4 4 4 4 4 5 4 3 3 2 1 1 1 1 1 1 1 1 1 2 2 2 2 3 3 3 3 4 8 10 11 12 12 12
7 6 6 6 5 5 4 3 2 3 4 3 3 3 4 3 3 2 2 2 1 1 1 1 1 1 1 1 1 2 2 2 3 3 3 3 3 4 7 10 11 11 12
7 7 6 6 6 6 5 3 3 3 3 3 3 2 3 3 3 2 2 2 2 1 1 1 1 1 1 1 2 2 2 2 3 3 3 4 4 4 4 7 10 11 11
7 6 6 4 3 3 3 2 2 2 1 2 2 3 3 2 3 2 2 2 2 1 0 0 1 1 1 1 2 2 2 3 2 3 3 3 3 4 5 5 4 6 10
6 6 5 5 3 3 3 3 3 2 2 2 2 3 3 3 3 3 1 1 1 1 1 1 1 0 0 0 1 2 3 3 2 2 2 2 2 3 4 4 3 3 3
6 6 5 4 3 3 2 2 2 3 2 2 1 1 2 2 2 2 2 1 1 1 0 1 1 1 0 0 1 0 2 4 3 2 1 1 2 1 2 4 3 4 3
5 5 5 5 5 4 3 2 2 2 1 1 1 1 1 2 2 2 2 2 1 1 1 1 1 2 1 1 1 2 1 2 3 3 2 1 1 1 2 2 3 4 4
5 4 4 4 3 3 3 4 5 3 2 2 1 1 0 1 1 1 1 2 1 1 1 1 1 1 2 1 1 1 2 2 1 3 3 2 2 2 2 2 2 2 3
5 4 4 4 3 2 3 5 5 3 2 1 1 1 1 1 0 1 1 1 1 1 1 0 0 1 1 2 2 1 1 1 2 2 3 3 3 2 2 2 2 2 3
5 4 4 4 3 2 3 4 5 5 4 3 2 1 1 1 1 0 1 1 1 0 0 1 1 1 1 1 1 2 2 2 2 2 2 2 3 3 2 2 2 2 2
Wind_Direction
148 154 146 139 134 130 126 122 117 114 110 107 105 103 102 101 101 103 106 109 111 111 110 109 107 104 103 102 102 104 105 108 114 117 118 117 117 120 125 125 121 118 119
148 150 145 141 138 135 132 128 124 121 119 116 113 110 108 107 106 108 109 111 112 114 113 112 111 108 107 106 107 108 108 111 115 119 121 119 119 120 127 129 126 128 125
139 144 144 143 141 139 137 134 131 128 126 123 120 117 115 114 113 113 113 112 113 115 115 114 113 110 108 106 106 108 109 111 112 116 119 117 122 125 127 130 131 131 129
140 143 145 144 144 143 141 139 137 136 134 131 129 127 125 123 121 120 119 119 118 119 120 119 116 114 114 110 107 104 102 103 106 123 132 156 150 138 137 136 136 137 137
136 140 147 146 146 145 145 144 143 142 140 139 137 135 134 132 130 129 128 127 126 127 128 127 125 124 123 119 112 102 87 65 75 107 168 171 163 154 148 145 144 144 144
135 139 148 148 147 147 148 148 148 147 147 146 145 144 143 140 138 137 137 138 139 141 141 140 139 140 144 142 135 92 15 344 348 142 161 163 170 170 160 156 154 152 151
139 142 147 147 148 149 150 151 152 152 152 153 152 152 151 149 148 148 150 151 154 158 159 157 157 161 173 193 232 284 310 322 356 159 169 172 183 178 169 166 164 161 160
144 144 147 150 151 152 153 154 155 156 157 158 157 157 157 156 157 160 163 166 169 171 175 177 178 186 201 228 258 281 297 312 1 84 182 186 197 189 177 172 171 172 169
144 145 148 152 153 155 156 158 159 160 161 161 163 164 165 166 168 169 175 179 183 187 191 197 202 208 216 233 255 275 292 307 26 185 209 189 198 190 184 178 179 179 178
140 147 148 147 149 154 158 162 163 164 165 166 170 172 174 177 181 185 187 191 195 200 204 210 219 224 229 240 254 267 275 280 166 200 198 205 203 197 190 185 184 186 185
144 150 150 151 153 152 155 167 167 169 171 173 178 181 180 185 191 197 201 203 206 210 214 216 222 231 238 248 257 264 264 196 178 190 199 214 212 208 198 193 191 194 191
161 164 160 162 162 161 167 159 163 171 171 173 174 181 178 184 200 209 220 217 218 219 223 226 231 239 245 253 265 271 243 203 195 204 210 217 220 216 207 200 197 197 196
167 168 168 171 168 170 164 158 167 167 166 179 187 187 187 191 209 219 216 229 227 226 229 240 240 235 230 228 246 249 230 215 208 221 222 220 221 216 213 205 199 199 200
165 170 171 173 171 175 165 169 171 172 175 187 199 193 183 190 206 210 212 210 205 211 214 229 227 224 229 229 229 236 230 216 214 220 227 222 217 218 213 207 203 203 201
166 166 166 167 172 174 166 175 174 181 184 188 189 191 183 184 197 196 201 197 199 206 215 220 218 217 228 235 231 227 228 226 215 210 231 225 218 218 215 213 209 208 205
171 172 168 163 170 167 168 173 175 180 179 182 189 189 184 183 185 180 181 187 205 212 218 219 221 210 221 233 246 245 236 233 226 212 222 230 223 218 216 215 215 214 212
163 161 165 161 160 163 167 176 175 177 171 176 184 183 180 175 174 169 163 180 213 220 208 207 228 203 208 242 260 261 255 250 237 226 220 223 231 226 223 223 219 216 216
144 148 158 153 146 155 167 180 179 173 169 180 181 179 179 171 160 156 163 188 203 213 179 174 188 209 219 227 252 259 257 258 250 239 233 228 225 232 229 228 224 219 218
149 147 144 138 150 155 165 175 155 157 165 171 169 170 177 171 166 164 175 186 173 165 168 192 169 189 207 262 262 260 263 260 256 258 249 239 228 223 221 231 224 220 220
144 140 135 135 143 153 143 135 143 136 152 156 159 165 161 158 155 153 168 165 154 157 190 156 182 200 186 225 284 296 282 269 260 250 251 249 230 225 219 223 220 226 221
140 135 139 145 158 153 151 162 168 170 166 168 168 163 163 161 148 146 155 139 136 158 194 178 174 181 256 95 37 328 310 291 276 261 250 250 244 232 216 213 213 215 223
150 144 139 139 145 176 181 183 174 165 169 176 165 141 148 145 144 148 138 145 147 144 199 187 130 120 280 122 131 10 330 331 331 313 301 272 272 259 226 214 206 204 203
148 152 156 164 166 177 173 145 113 91 82 100 111 145 176 149 143 136 141 145 159 142 180 186 158 154 219 279 168 165 181 255 304 307 301 302 308 290 265 236 211 207 197
158 158 162 164 158 168 161 142 143 146 149 170 163 158 152 71 101 114 133 135 128 121 134 210 175 182 169 228 276 225 205 192 217 300 309 304 305 284 275 264 221 197 183
156 161 161 148 140 155 150 146 143 135 144 114 90 85 46 5 12 115 120 117 121 118 123 127 286 199 180 197 209 228 253 245 213 218 280 304 312 287 273 256 222 205 187
159 151 145 140 149 162 147 139 143 152 149 129 119 166 225 261 296 221 132 126 126 118 176 227 236 247 231 220 219 206 206 220 228 219 245 272 279 279 277 257 224 209 197